CZ-4B R/B - Orbit

View from above orbital plane
View from above orbital plane
View from above satellite
View from above satellite

Ground track
Ground track

The orbit data is extracted from the following two-line orbital elements,

1 32959U 08026B   13142.09141226  .00000086  00000-0  40859-4 0  4898
2 32959 098.9398 301.1208 0071331 043.3781 070.5606 14.41152952262224
Epoch (UTC): 22 May 2013 02:11:38
Eccentricity: 0.0071331
inclination: 98.9398°
perigee height: 704 km
apogee height: 805 km
right ascension of ascending node: 301.1208°
argument of perigee: 43.3781°
revolutions per day: 14.41152952
mean anomaly at epoch: 70.5606°
orbit number at epoch: 26222

The dashed part of the orbit path shows where the satellite is in the earth's shadow,  

Developed and maintained by Chris Peat, Heavens-Above GmbH. Please read the updated FAQ before sending e-mail. Imprint. DLR